Location: Clanezzo
(45.7500°N, 9.6000°E)
Time: 04:08:35
(UTC+00:00)

Cosmos 1386 Rocket - Pass Details

Date: 12 May 2021
Orbit: 930 x 1005 km, 83.0° (Epoch: 18 June)

Event Time Altitude Azimuth Distance (km) Brightness Sun altitude
Rises 19:23:21 0° 351° (N) 3,597 8.2 -6.8°
Reaches altitude 10° 19:25:50 10° 352° (N) 2,653 7.5 -7.2°
Maximum altitude 19:31:54 90° 76° (ENE) 948 4.5 -8.0°
Drops below altitude 10° 19:38:00 10° 174° (S) 2,672 6.4 -8.9°
Sets 19:40:30 0° 174° (S) 3,624 7.1 -9.2°
